Location: Newark
(45.9456°N, 15.4064°E)
Time: 20:01:37
(UTC+00:00)

Vanguard 3 - Pass Details

Date: 28 January 2020
Orbit: 508 x 3263 km, 33.3° (Epoch: 22 February)

Event Time Altitude Azimuth Distance (km) Brightness Sun altitude
Rises 12:12:48 0° 178° (S) 6,151 12.8 24.3°
Reaches altitude 10° 12:19:33 10° 158° (SSE) 5,627 12.3 24.0°
Maximum altitude 12:27:52 15° 130° (SE) 5,580 11.8 23.5°
Drops below altitude 10° 12:36:52 10° 102° (ESE) 6,201 11.6 22.9°
Sets 12:44:55 0° 84° (E) 7,150 11.7 22.4°
